When you browse on this site, cookies collect data to enhance your experience and personalize the content and advertising you see.
Visit our Privacy Policy to learn more. By continuing to use the site, you agree to this use of cookies and data.
  • en France
  • Liste des pays
  • À 7 jours
  • Température de l'eau
  • Carte satellitaire
  • Carte météo
  • Widgets météo
  • user-avatar
    Se connecter

    Météo par heure à Loubomo

    Ce jour, 20 Novembre, Mardi

    Heure Température Précipitation Vent Pression Humidité
    00:00 +21°C° 0 mm 0 m/s 699 mmHg 86%
    01:00 +20°C° 0 mm 0 m/s 699 mmHg 88%
    02:00 +20°C° 0 mm 0 m/s 699 mmHg 89%
    03:00 +20°C° 0 mm 0 m/s 699 mmHg 91%
    04:00 +20°C° 0 mm 0 m/s 699 mmHg 92%
    05:00 +20°C° 0 mm 0 m/s 699 mmHg 90%
    06:00 +20°C° 0 mm 0 m/s 700 mmHg 89%
    07:00 +22°C° 0 mm 0 m/s 701 mmHg 84%
    08:00 +24°C° 0 mm 0 m/s 701 mmHg 73%
    09:00 +27°C° 0 mm 0 m/s 702 mmHg 62%
    10:00 +30°C° 0 mm 0 m/s 702 mmHg 51%
    11:00 +33°C° 0 mm 1 m/s 702 mmHg 46%
    12:00 +34°C° 0 mm 1 m/s 701 mmHg 41%
    13:00 +33°C° 0 mm 1 m/s 700 mmHg 39%
    14:00 +33°C° 0 mm 1 m/s 700 mmHg 42%
    15:00 +32°C° 0 mm 1 m/s 699 mmHg 46%
    16:00 +32°C° 0 mm 1 m/s 699 mmHg 49%
    17:00 +30°C° 0 mm 1 m/s 699 mmHg 55%
    18:00 +28°C° 0 mm 1 m/s 699 mmHg 62%
    19:00 +26°C° 0 mm 1 m/s 699 mmHg 69%
    20:00 +25°C° 0 mm 1 m/s 700 mmHg 72%
    21:00 +25°C° 0 mm 1 m/s 700 mmHg 75%
    22:00 +24°C° 0 mm 1 m/s 700 mmHg 78%
    23:00 +24°C° 0 mm 1 m/s 700 mmHg 81%

    Demain, 21 Novembre, Mercredi

    Heure Température Précipitation Vent Pression Humidité
    00:00 +23°C° 0 mm 1 m/s 700 mmHg 85%
    01:00 +22°C° 0 mm 1 m/s 700 mmHg 89%
    02:00 +22°C° 0 mm 1 m/s 700 mmHg 91%
    03:00 +22°C° 0 mm 1 m/s 700 mmHg 93%
    04:00 +22°C° 0 mm 1 m/s 700 mmHg 95%
    05:00 +23°C° 0 mm 1 m/s 700 mmHg 93%
    06:00 +23°C° 0 mm 1 m/s 700 mmHg 90%
    07:00 +23°C° 0 mm 1 m/s 701 mmHg 88%
    08:00 +25°C° 0 mm 1 m/s 701 mmHg 80%
    09:00 +27°C° 0 mm 1 m/s 702 mmHg 72%
    10:00 +28°C° 0 mm 1 m/s 702 mmHg 64%
    11:00 +30°C° 0 mm 1 m/s 701 mmHg 55%
    12:00 +32°C° 0 mm 1 m/s 701 mmHg 46%
    13:00 +34°C° 0 mm 1 m/s 700 mmHg 37%
    14:00 +34°C° 0 mm 1 m/s 700 mmHg 37%
    15:00 +34°C° 0 mm 1 m/s 699 mmHg 37%
    16:00 +33°C° 0 mm 1 m/s 698 mmHg 37%
    17:00 +31°C° 0 mm 1 m/s 698 mmHg 45%
    18:00 +28°C° 0 mm 1 m/s 699 mmHg 54%
    19:00 +26°C° 0 mm 1 m/s 699 mmHg 62%
    20:00 +25°C° 0 mm 1 m/s 699 mmHg 67%
    21:00 +25°C° 0 mm 1 m/s 700 mmHg 71%
    22:00 +24°C° 0 mm 1 m/s 700 mmHg 76%
    23:00 +24°C° 0 mm 1 m/s 700 mmHg 80%

    Après-demain, 22 Novembre, Jeudi

    Heure Température Précipitation Vent Pression Humidité
    00:00 +23°C° 0 mm 1 m/s 700 mmHg 85%
    01:00 +23°C° 0 mm 1 m/s 700 mmHg 90%
    02:00 +23°C° 0 mm 1 m/s 700 mmHg 90%
    03:00 +23°C° 0 mm 1 m/s 700 mmHg 90%
    04:00 +23°C° 0 mm 1 m/s 700 mmHg 91%
    05:00 +23°C° 0 mm 1 m/s 700 mmHg 90%
    06:00 +23°C° 0 mm 1 m/s 700 mmHg 90%
    07:00 +23°C° 0 mm 1 m/s 701 mmHg 90%
    08:00 +25°C° 0 mm 1 m/s 701 mmHg 83%
    09:00 +26°C° 0 mm 1 m/s 701 mmHg 77%
    10:00 +27°C° 0 mm 1 m/s 702 mmHg 71%
    11:00 +29°C° 0 mm 1 m/s 701 mmHg 64%
    12:00 +30°C° 0 mm 1 m/s 700 mmHg 57%
    13:00 +32°C° 0 mm 1 m/s 700 mmHg 50%
    14:00 +31°C° 0 mm 1 m/s 699 mmHg 51%
    15:00 +31°C° 0 mm 1 m/s 698 mmHg 52%
    16:00 +31°C° 0 mm 1 m/s 698 mmHg 53%
    17:00 +29°C° 0 mm 1 m/s 698 mmHg 60%
    18:00 +27°C° 0 mm 1 m/s 698 mmHg 68%
    19:00 +25°C° 0 mm 1 m/s 699 mmHg 75%
    20:00 +25°C° 0 mm 1 m/s 699 mmHg 78%
    21:00 +24°C° 0 mm 1 m/s 700 mmHg 80%
    22:00 +24°C° 0 mm 1 m/s 700 mmHg 83%
    23:00 +23°C° 0 mm 1 m/s 700 mmHg 87%

    23 Novembre, Vendredi

    Heure Température Précipitation Vent Pression Humidité
    00:00 +23°C° 0 mm 1 m/s 700 mmHg 91%
    01:00 +22°C° 0 mm 1 m/s 700 mmHg 95%
    02:00 +22°C° 0 mm 1 m/s 700 mmHg 94%
    03:00 +23°C° 0 mm 1 m/s 700 mmHg 94%
    04:00 +23°C° 0 mm 1 m/s 700 mmHg 93%
    05:00 +23°C° 0 mm 1 m/s 700 mmHg 92%
    06:00 +23°C° 0 mm 1 m/s 701 mmHg 91%
    07:00 +23°C° 0 mm 1 m/s 701 mmHg 91%
    08:00 +25°C° 0 mm 1 m/s 701 mmHg 81%
    09:00 +27°C° 0 mm 1 m/s 702 mmHg 72%
    10:00 +29°C° 0 mm 1 m/s 702 mmHg 62%
    11:00 +31°C° 0 mm 1 m/s 702 mmHg 55%
    12:00 +33°C° 0 mm 1 m/s 701 mmHg 48%
    13:00 +35°C° 0 mm 1 m/s 700 mmHg 41%
    14:00 +33°C° 0 mm 1 m/s 699 mmHg 45%
    15:00 +32°C° 0 mm 1 m/s 699 mmHg 48%
    16:00 +31°C° 0 mm 1 m/s 698 mmHg 51%
    17:00 +27°C° 0 mm 0 m/s 698 mmHg 57%
    18:00 +25°C° 0 mm 0 m/s 698 mmHg 63%
    19:00 +24°C° 0 mm 0 m/s 699 mmHg 69%
    20:00 +23°C° 0 mm 0 m/s 699 mmHg 71%
    21:00 +23°C° 0 mm 0 m/s 699 mmHg 73%
    22:00 +24°C° 0 mm 1 m/s 700 mmHg 76%
    23:00 +24°C° 0 mm 1 m/s 699 mmHg 78%

    24 Novembre, Samedi

    Heure Température Précipitation Vent Pression Humidité
    00:00 +23°C° 0 mm 1 m/s 699 mmHg 80%
    01:00 +23°C° 0 mm 1 m/s 699 mmHg 83%
    02:00 +22°C° 0 mm 1 m/s 699 mmHg 85%
    03:00 +22°C° 0 mm 1 m/s 699 mmHg 88%
    04:00 +22°C° 0 mm 1 m/s 699 mmHg 91%
    05:00 +20°C° 0 mm 0 m/s 699 mmHg 90%
    06:00 +20°C° 0 mm 0 m/s 700 mmHg 90%
    07:00 +21°C° 0 mm 0 m/s 700 mmHg 90%
    08:00 +24°C° 0 mm 0 m/s 701 mmHg 78%
    09:00 +27°C° 0 mm 0 m/s 701 mmHg 65%
    10:00 +32°C° 0 mm 1 m/s 702 mmHg 53%
    11:00 +33°C° 0 mm 1 m/s 701 mmHg 47%
    12:00 +35°C° 0 mm 1 m/s 700 mmHg 41%
    13:00 +36°C° 0 mm 1 m/s 699 mmHg 35%
    14:00 +35°C° 0 mm 1 m/s 699 mmHg 39%
    15:00 +33°C° 0 mm 1 m/s 698 mmHg 43%
    16:00 +32°C° 0 mm 1 m/s 698 mmHg 47%
    17:00 +30°C° 0 mm 1 m/s 698 mmHg 53%
    18:00 +27°C° 0 mm 0 m/s 698 mmHg 58%
    19:00 +25°C° 0 mm 0 m/s 699 mmHg 63%
    20:00 +26°C° 0 mm 1 m/s 699 mmHg 66%
    21:00 +26°C° 0 mm 1 m/s 699 mmHg 70%
    22:00 +25°C° 0 mm 1 m/s 700 mmHg 73%
    23:00 +24°C° 0 mm 1 m/s 700 mmHg 76%

    25 Novembre, Dimanche

    Heure Température Précipitation Vent Pression Humidité
    00:00 +24°C° 0 mm 1 m/s 699 mmHg 80%
    01:00 +23°C° 0 mm 1 m/s 699 mmHg 83%
    02:00 +23°C° 0.1 mm 1 m/s 699 mmHg 87%
    03:00 +23°C° 0.1 mm 1 m/s 699 mmHg 90%
    04:00 +23°C° 0.1 mm 1 m/s 699 mmHg 93%
    05:00 +23°C° 0 mm 1 m/s 699 mmHg 93%
    06:00 +23°C° 0 mm 1 m/s 700 mmHg 92%
    07:00 +23°C° 0 mm 1 m/s 700 mmHg 92%
    08:00 +26°C° 0 mm 1 m/s 701 mmHg 81%
    09:00 +28°C° 0 mm 1 m/s 701 mmHg 71%
    10:00 +30°C° 0 mm 1 m/s 701 mmHg 60%
    11:00 +32°C° 0 mm 1 m/s 701 mmHg 54%
    12:00 +34°C° 0 mm 1 m/s 700 mmHg 47%
    13:00 +35°C° 0 mm 1 m/s 699 mmHg 41%
    14:00 +34°C° 0 mm 1 m/s 699 mmHg 46%
    15:00 +33°C° 0 mm 1 m/s 698 mmHg 50%
    16:00 +31°C° 0 mm 1 m/s 697 mmHg 55%
    17:00 +30°C° 0 mm 1 m/s 698 mmHg 61%
    18:00 +28°C° 0 mm 1 m/s 698 mmHg 67%
    19:00 +27°C° 0 mm 1 m/s 699 mmHg 73%
    20:00 +26°C° 0.2 mm 1 m/s 699 mmHg 76%
    21:00 +26°C° 0.2 mm 1 m/s 699 mmHg 80%
    22:00 +25°C° 0.2 mm 1 m/s 699 mmHg 84%
    23:00 +24°C° 0.5 mm 1 m/s 699 mmHg 88%
    Voir plus